Location: Brno
(49.2000°N, 16.6330°E)
Time: 08:53:13
(UTC+02:00)

BREEZE M DEB (TANK) - Visible Passes

Search period start: 28 August 2016 00:00
Search period end: 07 September 2016 00:00
Orbit: 295 x 12022 km, 49.5° (Epoch: 27 August)

Date Brightness Start Highest point End Pass type
(mag) Time Alt. Az. Time Alt. Az. Time Alt. Az.
28 Aug 6.0 01:49:55 19° SE 01:54:49 25° E 02:13:50 10° ENE visible
29 Aug 6.4 01:06:57 12° ESE 01:11:47 16° E 01:22:17 10° ENE visible
29 Aug 5.9 04:59:48 13° WSW 05:10:56 83° SSE 06:14:14 10° E visible
30 Aug 5.5 04:16:48 22° SW 04:25:04 75° SSE 05:17:28 10° ENE visible
31 Aug 5.3 03:33:49 31° SSW 03:39:47 64° SE 04:22:17 10° ENE visible
01 Sep 5.2 02:50:49 36° S 02:55:05 52° SE 03:28:50 10° ENE visible
02 Sep 5.5 02:07:47 33° SSE 02:10:56 39° ESE 02:36:50 10° ENE visible
03 Sep 5.9 01:24:45 25° SE 01:27:17 27° ESE 01:45:48 10° ENE visible
03 Sep 6.1 05:17:36 10° WSW 05:30:39 90° SSE 06:42:35 10° E visible
04 Sep 6.3 00:41:43 16° ESE 00:44:01 17° E 00:55:00 10° ENE visible
04 Sep 5.7 04:34:32 20° WSW 04:44:07 86° SSE 05:44:55 10° E visible
05 Sep 5.3 03:51:29 31° SW 03:58:09 79° SSE 04:48:09 10° ENE visible
06 Sep 5.0 03:08:24 43° SSW 03:12:43 69° SE 03:53:04 10° ENE visible
